EW8719 Richmond Hill GA US current weather conditions

sailwx.info

Wind from 323

Air temperature 21.1° C
Dewpoint 20.4° C

Last reported at 2020-Sep-27 12:00 UTC.
Time now 2020-Sep-27 12:52 UTC

Location: N 31°50' W 081°16'.
View on Google Maps.

See reports from other nearby stations

  
Tides and Currents Weather Stations Pressure Air Temp Water Temp Dewpoint Dewpoint Depression Visibility Wind Speed Wind Dir Waves Ship Positions
date/time (UTC)wind fromknots sea level pressurealtimeterstation pressurevisibilityair tempwater tempwave heightnotes
2020-Sep-27 12:00 323 21.1
2020-Sep-27 11:45 323 21.1
2020-Sep-27 11:31 323 21.1
2020-Sep-27 11:15 323 21.1
2020-Sep-27 11:00 323 20.6
2020-Sep-27 10:45 323 20.6
2020-Sep-27 10:30 323 20.6
2020-Sep-27 10:15 323 20.6
2020-Sep-27 10:01 323 20.6
2020-Sep-27 09:46 323 20.6
2020-Sep-27 09:30 323 20.6
2020-Sep-27 09:15 323 20.6
2020-Sep-27 09:00 323 20.6
2020-Sep-27 08:46 323 20.6
2020-Sep-27 08:30 323 20.6
2020-Sep-27 08:15 323 20.6
2020-Sep-27 08:00 323 20.6
2020-Sep-27 07:45 323 21.1
2020-Sep-27 07:30 323 21.1
2020-Sep-27 07:15 323 21.1
2020-Sep-27 07:00 323 21.1
2020-Sep-27 06:45 323 21.1
2020-Sep-27 06:31 323 21.1
2020-Sep-27 06:15 323 21.7
2020-Sep-27 06:00 323 21.7
2020-Sep-27 05:47 323 21.7
2020-Sep-27 05:31 323 21.7
2020-Sep-27 05:16 323 22.2
2020-Sep-27 05:03 323 22.2
2020-Sep-27 04:46 323 22.2
2020-Sep-27 04:31 323 22.2
2020-Sep-27 04:16 323 22.2
2020-Sep-27 04:01 325 22.8
2020-Sep-27 03:45 325 22.8
2020-Sep-27 03:31 325 22.8
2020-Sep-27 03:16 325 23.3
2020-Sep-27 03:01 325 23.3
2020-Sep-27 02:46 325 23.3
2020-Sep-27 02:31 325 23.3
2020-Sep-27 02:16 355 23.3
2020-Sep-27 02:01 138 23.3
2020-Sep-27 01:46 138 23.3
2020-Sep-27 01:31 138 23.3
2020-Sep-27 01:16 138 23.3
2020-Sep-27 01:01 138 23.3
2020-Sep-27 00:47 138 23.3
2020-Sep-27 00:31 138 23.9
2020-Sep-27 00:16 138 23.9
2020-Sep-27 00:01 138 23.9
2020-Sep-26 23:46 138 24.4
2020-Sep-26 23:31 138 24.4
2020-Sep-26 23:16 138 25.0
2020-Sep-26 23:01 171 25.6
2020-Sep-26 22:46 190 0 gusting 1 25.6
2020-Sep-26 22:30 198 26.1
2020-Sep-26 22:16 198 26.1
2020-Sep-26 22:01 198 0 gusting 1 26.7
2020-Sep-26 21:46 247 26.7
2020-Sep-26 21:30 209 27.2
2020-Sep-26 21:15 144 27.8
2020-Sep-26 21:00 219 28.9
2020-Sep-26 20:45 214 1 gusting 3 28.3
2020-Sep-26 20:30 182 27.2
2020-Sep-26 20:15 182 27.2
2020-Sep-26 20:00 182 0 gusting 1 27.8
2020-Sep-26 19:45 182 27.8
2020-Sep-26 19:30 182 0 gusting 1 27.8
2020-Sep-26 19:16 182 28.3
2020-Sep-26 19:01 182 28.9
2020-Sep-26 18:45 313 0 gusting 2 28.3
2020-Sep-26 18:30 313 27.8
2020-Sep-26 18:15 313 0 gusting 2 27.8
2020-Sep-26 18:00 318 27.8
2020-Sep-26 17:45 149 0 gusting 3 27.2
2020-Sep-26 17:30 325 26.1
2020-Sep-26 17:15 325 25.6
2020-Sep-26 17:00 325 25.0
2020-Sep-26 16:47 325 25.0
2020-Sep-26 16:31 325 24.4
2020-Sep-26 16:16 325 24.4
2020-Sep-26 16:03 325 23.9
2020-Sep-26 15:46 325 23.9
2020-Sep-26 15:32 324 23.9
2020-Sep-26 15:16 324 23.9
2020-Sep-26 15:01 324 23.3
2020-Sep-26 14:46 324 23.3
2020-Sep-26 14:31 306 23.3
2020-Sep-26 14:16 305 23.3
2020-Sep-26 14:01 305 23.3
2020-Sep-26 13:46 305 0 gusting 2 23.3
2020-Sep-26 13:31 310 0 gusting 3 22.8
2020-Sep-26 13:16 221 22.8
2020-Sep-26 13:01 221 22.8
2020-Sep-26 12:46 221 22.2
2020-Sep-26 12:31 221 22.2
2020-Sep-26 12:16 221 22.2
2020-Sep-26 12:02 221 22.2
2020-Sep-26 11:46 221 21.7
2020-Sep-26 11:30 221 21.7
2020-Sep-26 11:16 221 21.7
2020-Sep-26 11:01 221 22.2
2020-Sep-26 10:45 221 22.2
2020-Sep-26 10:30 221 22.2
2020-Sep-26 10:16 221 22.2
2020-Sep-26 10:00 221 22.2
2020-Sep-26 09:45 221 22.2
2020-Sep-26 09:31 221 22.2
2020-Sep-26 09:15 221 22.2
2020-Sep-26 09:00 221 22.2
2020-Sep-26 08:46 221 22.2
2020-Sep-26 08:31 221 22.2
2020-Sep-26 08:15 221 22.2
2020-Sep-26 08:00 221 22.2
2020-Sep-26 07:45 221 22.2
2020-Sep-26 07:30 221 22.8
2020-Sep-26 07:15 221 22.8
2020-Sep-26 07:00 221 22.8
2020-Sep-26 06:45 221 22.8
2020-Sep-26 06:30 221 22.8
2020-Sep-26 06:15 221 22.8
2020-Sep-26 06:00 221 22.8
2020-Sep-26 05:45 221 22.8
2020-Sep-26 05:30 221 22.8
2020-Sep-26 05:17 221 22.8
2020-Sep-26 05:01 221 22.8
2020-Sep-26 04:46 221 23.3
2020-Sep-26 04:31 221 23.3
2020-Sep-26 04:16 221 23.3
2020-Sep-26 04:01 221 23.9
2020-Sep-26 03:46 221 23.9
2020-Sep-26 03:31 221 23.9
2020-Sep-26 03:16 221 23.9
2020-Sep-26 03:01 221 23.9
2020-Sep-26 02:46 221 23.9
2020-Sep-26 02:31 221 24.4
2020-Sep-26 02:16 221 0 gusting 4 25.0
2020-Sep-26 02:01 342 6 gusting 13 25.6
2020-Sep-26 01:46 193 25.6
2020-Sep-26 01:31 193 25.6
2020-Sep-26 01:16 193 25.6
2020-Sep-26 01:01 186 25.6
2020-Sep-26 00:46 186 25.6
2020-Sep-26 00:31 186 26.1
2020-Sep-26 00:16 186 26.1
2020-Sep-26 00:01 186 26.1
2020-Sep-25 23:46 186 26.7
2020-Sep-25 23:31 186 27.2
2020-Sep-25 23:16 186 27.2
2020-Sep-25 23:00 155 27.8
2020-Sep-25 22:47 141 28.3
2020-Sep-25 22:31 198 28.9
2020-Sep-25 22:15 194 0 gusting 4 28.9
2020-Sep-25 22:01 209 29.4
2020-Sep-25 21:45 142 0 gusting 2 29.4
2020-Sep-25 21:31 107 0 gusting 4 29.4
2020-Sep-25 21:16 200 2 gusting 6 30.0
2020-Sep-25 21:01 194 1 gusting 6 30.6
2020-Sep-25 20:45 144 30.0
2020-Sep-25 20:30 198 2 gusting 6 30.6
2020-Sep-25 20:16 208 1 gusting 3 29.4
2020-Sep-25 20:00 148 2 gusting 6 29.4
2020-Sep-25 19:45 205 0 gusting 4 30.0
2020-Sep-25 19:30 200 30.0
2020-Sep-25 19:15 149 2 gusting 8 30.6
2020-Sep-25 19:00 228 2 gusting 6 30.0
2020-Sep-25 18:45 181 0 gusting 4 28.9
2020-Sep-25 18:30 169 0 gusting 4 29.4
2020-Sep-25 18:15 228 1 gusting 8 29.4
2020-Sep-25 18:00 167 3 gusting 9 30.0
2020-Sep-25 17:45 217 5 gusting 8 28.9
2020-Sep-25 17:30 236 0 gusting 4 28.3
2020-Sep-25 17:15 182 1 gusting 6 27.8
2020-Sep-25 17:00 145 28.3
2020-Sep-25 16:45 155 28.3
2020-Sep-25 16:30 225 1 gusting 6 28.9
2020-Sep-25 16:15 221 1 gusting 8 29.4
2020-Sep-25 16:02 216 1 gusting 7 29.4
2020-Sep-25 15:47 227 3 gusting 9 29.4
2020-Sep-25 15:31 219 3 gusting 9 28.9
2020-Sep-25 15:16 215 3 gusting 7 28.3
2020-Sep-25 15:02 163 1 gusting 6 27.8
2020-Sep-25 14:47 219 3 gusting 8 27.8
2020-Sep-25 14:31 238 1 gusting 6 26.7
2020-Sep-25 14:17 173 2 gusting 6 26.1
2020-Sep-25 14:01 220 2 gusting 4 25.6
2020-Sep-25 13:46 207 25.0
2020-Sep-25 13:31 160 0 gusting 3 25.0
2020-Sep-25 13:16 163 24.4
2020-Sep-25 13:01 161 24.4
2020-Sep-25 12:45 138 23.9
2020-Sep-25 12:31 138 23.9
2020-Sep-25 12:15 130 23.3
2020-Sep-25 12:00 130 23.3